Location: Betzi
(47.2343°N, 9.5260°E)
Time: 06:39:03
(UTC+00:00)

CZ-4C R/B - Visible Passes

Search period start: 06 October 2022 00:00
Search period end: 16 October 2022 00:00
Orbit: 574 x 1426 km, 63.4° (Epoch: 05 October)

Date Brightness Start Highest point End Pass type
(mag) Time Alt. Az. Time Alt. Az. Time Alt. Az.
10 Oct 4.8 04:18:56 10° SE 04:21:23 14° ESE 04:24:02 10° ENE visible
11 Oct 3.8 04:49:41 10° S 04:53:52 34° ESE 04:58:50 10° NE visible
12 Oct 5.1 03:38:41 10° ESE 03:39:43 11° ESE 03:40:48 10° E visible
13 Oct 4.0 04:08:13 10° S 04:12:08 27° ESE 04:16:41 10° ENE visible
14 Oct 2.5 04:40:18 10° SSW 04:44:54 63° ESE 04:50:35 10° NE visible
15 Oct 4.2 03:26:53 10° SSE 03:30:25 21° ESE 03:34:26 10° ENE visible
